Afton Municipal Airport, WY

8:51 PM MST on December 11, 2019 (GMT -0700)
Afton Municipal

Weather History for KAFO - October, 2019

Change the Weather History Date:

Tuesday, October 29, 2019

  Actual Average Record
Temperature  
Mean Temperature 12 °F -  
Max Temperature 21 °F 51 °F 60 °F (2017)
Min Temperature 3 °F 19 °F 21 °F (2014)
Degree Days  
Heating Degree Days 53    
Moisture  
Dew Point 9 °F    
Average Humidity 75    
Maximum Humidity 93    
Minimum Humidity 49    
Precipitation  
Precipitation 0.00 in - - ()
Sea Level Pressure  
Sea Level Pressure 29.96 in    
Wind  
Wind Speed 5 mph ()    
Max Wind Speed 12 mph    
Max Gust Speed -    
Visibility 6.8 miles    
Events Snow    
Averages and records for this station are not official NWS values.
T = Trace of Precipitation, MM = Missing Value Source: Averaged Metar Reports

Daily Weather History Graph

Daily Weather History Graph

Search for Another Location

Airport or City:

Astronomy

Oct. 29, 2019 Rise Set
Actual Time 7:53 AM MDT 6:20 PM MDT
Civil Twilight 7:24 AM MDT 6:49 PM MDT
Nautical Twilight 6:51 AM MDT 7:22 PM MDT
Astronomical Twilight 6:18 AM MDT 7:55 PM MDT
Moon 9:33 AM MDT (10/29) 7:45 PM MDT (10/29)
Length of Visible Light 11h 25m
Length of Day
10h 26m
Waxing Crescent, 3% of the Moon is Illuminated
Oct 29
Waxing Crescent
Nov 4
First Quarter
Nov 12
Full
Nov 19
Last Quarter
Nov 26
New

Hourly Weather History & Observations

Time (MDT) Temp. Windchill Dew Point Humidity Pressure Visibility Wind Dir Wind Speed Gust Speed Precip Events Conditions
12:15 AM 19.4 °F - 15.8 °F 86% 29.82 in 7.0 mi North - - N/A   Overcast
12:35 AM 19.4 °F - 15.8 °F 86% 29.81 in 5.0 mi North - - N/A Snow Light Snow
12:55 AM 19.4 °F - 15.8 °F 86% 29.80 in 7.0 mi Calm Calm - N/A Snow Light Snow
1:15 AM 19.4 °F - 17.6 °F 93% 29.79 in 3.0 mi North - - N/A Snow Light Snow
1:35 AM 19.4 °F 14.3 °F 17.6 °F 93% 29.79 in 2.0 mi NNE 3.5 mph - N/A   Overcast
1:55 AM 19.4 °F - 17.6 °F 93% 29.78 in 1.5 mi North - - N/A   Overcast
2:35 AM 19.4 °F - 17.6 °F 93% 29.78 in 1.5 mi North - - N/A   Overcast
2:55 AM 19.4 °F - 17.6 °F 93% 29.78 in 1.8 mi North - - N/A   Overcast
3:15 AM 19.4 °F - 17.6 °F 93% 29.77 in 1.2 mi North - - N/A   Overcast
3:35 AM 19.4 °F - 17.6 °F 93% 29.76 in 1.0 mi North - - N/A Snow Snow
3:55 AM 19.4 °F - 17.6 °F 93% 29.76 in 2.0 mi North - - N/A Snow Light Snow
4:15 AM 19.4 °F - 17.6 °F 93% 29.76 in 2.5 mi North - - N/A Snow Light Snow
4:35 AM 19.4 °F - 17.6 °F 93% 29.75 in 3.0 mi North - - N/A   Overcast
4:55 AM 19.4 °F - 17.6 °F 93% 29.75 in 2.0 mi Calm Calm - N/A   Overcast
5:15 AM 19.4 °F - 17.6 °F 93% 29.76 in 4.0 mi Calm Calm - N/A   Overcast
5:35 AM 19.4 °F - 17.6 °F 93% 29.76 in 2.5 mi North - - N/A Snow Light Snow
5:55 AM 17.6 °F 12.3 °F 14.0 °F 86% 29.76 in 2.5 mi East 3.5 mph - N/A Snow Light Snow
6:15 AM 17.6 °F 6.4 °F 12.2 °F 79% 29.76 in 4.0 mi South 9.2 mph - N/A Snow Light Snow
6:35 AM 17.6 °F 5.0 °F 10.4 °F 73% 29.76 in 10.0 mi South 11.5 mph - N/A   Overcast
6:55 AM 17.6 °F 6.4 °F 8.6 °F 68% 29.78 in 10.0 mi South 9.2 mph - N/A   Overcast
7:15 AM 17.6 °F 8.2 °F 8.6 °F 68% 29.79 in 10.0 mi SSW 6.9 mph - N/A   Overcast
7:35 AM 17.6 °F 6.4 °F 6.8 °F 63% 29.80 in 10.0 mi SSW 9.2 mph - N/A   Overcast
7:55 AM 15.8 °F 5.1 °F 6.8 °F 68% 29.82 in 10.0 mi South 8.1 mph - N/A   Overcast
8:15 AM 14.0 °F 1.2 °F 8.6 °F 79% 29.84 in 5.0 mi SSW 10.4 mph - N/A   Haze
8:35 AM 14.0 °F 1.2 °F 8.6 °F 79% 29.86 in 1.0 mi SSW 10.4 mph - N/A Snow Light Snow
8:55 AM 14.0 °F 2.9 °F 8.6 °F 79% 29.88 in 1.8 mi SSW 8.1 mph - N/A Snow Light Snow
9:15 AM 14.0 °F 2.9 °F 8.6 °F 79% 29.89 in 3.0 mi SSW 8.1 mph - N/A Snow Light Snow
9:35 AM 14.0 °F 2.9 °F 6.8 °F 73% 29.90 in 7.0 mi South 8.1 mph - N/A   Overcast
9:55 AM 15.8 °F 4.2 °F 3.2 °F 58% 29.91 in 10.0 mi SSW 9.2 mph - N/A   Overcast
10:15 AM 15.8 °F 7.2 °F 3.2 °F 58% 29.92 in 10.0 mi SSW 5.8 mph - N/A   Overcast
10:35 AM 17.6 °F 8.2 °F 3.2 °F 53% 29.93 in 10.0 mi SSW 6.9 mph - N/A   Overcast
10:55 AM 17.6 °F 8.2 °F 3.2 °F 53% 29.94 in 10.0 mi SW 6.9 mph - N/A   Overcast
11:15 AM 17.6 °F - 3.2 °F 53% 29.96 in 10.0 mi Calm Calm - N/A   Overcast
11:35 AM 17.6 °F 5.7 °F 1.4 °F 49% 29.97 in 10.0 mi South 10.4 mph - N/A   Overcast
11:55 AM 19.4 °F 7.9 °F 3.2 °F 49% 29.97 in 10.0 mi South 10.4 mph - N/A   Overcast
12:15 PM 19.4 °F 7.9 °F 3.2 °F 49% 29.98 in 10.0 mi South 10.4 mph - N/A   Overcast
12:35 PM 19.4 °F 8.6 °F 5.0 °F 54% 29.99 in 10.0 mi South 9.2 mph - N/A   Overcast
12:55 PM 19.4 °F 11.5 °F 3.2 °F 49% 30.00 in 10.0 mi SE 5.8 mph - N/A   Overcast
1:35 PM 19.4 °F 11.5 °F 6.8 °F 58% 30.01 in 10.0 mi North 5.8 mph - N/A   Overcast
1:55 PM 19.4 °F 10.4 °F 8.6 °F 63% 30.01 in 10.0 mi North 6.9 mph - N/A   Overcast
2:15 PM 19.4 °F - 10.4 °F 68% 30.01 in 7.0 mi Calm Calm - N/A   Overcast
2:35 PM 19.4 °F - 8.6 °F 63% 30.02 in 10.0 mi Calm Calm - N/A   Overcast
2:55 PM 21.2 °F 16.4 °F 8.6 °F 58% 30.02 in 10.0 mi NW 3.5 mph - N/A   Overcast
3:15 PM 19.4 °F 10.4 °F 8.6 °F 63% 30.03 in 10.0 mi North 6.9 mph - N/A   Overcast
3:35 PM 19.4 °F - 8.6 °F 63% 30.03 in 10.0 mi Calm Calm - N/A   Mostly Cloudy
4:15 PM 19.4 °F 11.5 °F 5.0 °F 54% 30.05 in 10.0 mi NNW 5.8 mph - N/A   Overcast
4:35 PM 19.4 °F 11.5 °F 5.0 °F 54% 30.06 in 10.0 mi NNW 5.8 mph - N/A   Mostly Cloudy
4:55 PM 19.4 °F 12.8 °F 6.8 °F 58% 30.07 in 10.0 mi WNW 4.6 mph - N/A   Overcast
5:15 PM 19.4 °F 12.8 °F 6.8 °F 58% 30.08 in 10.0 mi WNW 4.6 mph - N/A   Overcast
5:35 PM 17.6 °F 10.7 °F 10.4 °F 73% 30.09 in 7.0 mi WNW 4.6 mph - N/A   Overcast
5:55 PM 17.6 °F 6.4 °F 12.2 °F 79% 30.11 in 10.0 mi SW 9.2 mph - N/A   Overcast
6:15 PM 14.0 °F 1.2 °F 10.4 °F 86% 30.11 in 3.0 mi South 10.4 mph - N/A Snow Light Snow
6:35 PM 14.0 °F 1.2 °F 8.6 °F 79% 30.13 in 5.0 mi South 10.4 mph - N/A Snow Light Snow
6:55 PM 14.0 °F - 8.6 °F 79% 30.14 in 7.0 mi North - - N/A   Overcast
7:15 PM 14.0 °F 1.2 °F 8.6 °F 79% 30.15 in 5.0 mi South 10.4 mph - N/A Snow Light Snow
7:35 PM 14.0 °F 1.2 °F 8.6 °F 79% 30.15 in 3.0 mi SSE 10.4 mph - N/A Snow Light Snow
7:55 PM 12.2 °F -1.0 °F 8.6 °F 85% 30.17 in 4.0 mi South 10.4 mph - N/A Snow Light Snow
8:15 PM 12.2 °F -1.0 °F 8.6 °F 85% 30.17 in 5.0 mi South 10.4 mph - N/A   Haze
8:35 PM 12.2 °F -1.8 °F 8.6 °F 85% 30.18 in 4.0 mi South 11.5 mph - N/A Snow Light Snow
8:55 PM 12.2 °F -1.0 °F 6.8 °F 79% 30.18 in 4.0 mi South 10.4 mph - N/A Snow Light Snow
9:15 PM 10.4 °F -3.3 °F 5.0 °F 79% 30.19 in 7.0 mi South 10.4 mph - N/A   Overcast
9:35 PM 10.4 °F -2.4 °F 3.2 °F 73% 30.20 in 10.0 mi South 9.2 mph - N/A   Overcast
9:55 PM 8.6 °F -4.7 °F 1.4 °F 73% 30.20 in 10.0 mi South 9.2 mph - N/A   Scattered Clouds
10:15 PM 5.0 °F -5.6 °F -0.4 °F 78% 30.21 in 10.0 mi SSW 5.8 mph - N/A   Clear
10:35 PM 3.2 °F -9.1 °F -0.4 °F 85% 30.21 in 10.0 mi SSW 6.9 mph - N/A   Clear
11:15 PM 5.0 °F - -0.4 °F 78% 30.23 in 10.0 mi Calm Calm - N/A   Overcast
11:35 PM 3.2 °F -4.2 °F -0.4 °F 85% 30.23 in 10.0 mi SSE 3.5 mph - N/A   Overcast
11:55 PM 3.2 °F - -0.4 °F 85% 30.24 in 10.0 mi Calm Calm - N/A   Overcast